WFOV (USA 332)

Last updated on Wed Sep 23 2026 00:03:35 GMT+0000 (Coordinated Universal Time)

1 52940U 22073A 26265.43935760 -.00000363 00000+0 00000+0 0 9993 2 52940 3.9529 77.2267 0002301 162.8575 38.7086 1.00274265 15343
UTC large
Height (km)
Speed (km/s)
/
Latitude / Longitude
Inclination (degrees)
Orbital Period (minutes)
Azimuth
Elevation
Range (km)
Doppler Factor

Next 0 passes for location: London (51.5072 / 0.1276)

No passes found over London.